Location: Arrien
(43.3167°N, 0.1500°W)
Time: 03:13:54
(UTC+00:00)

Cosmos 1455 Rocket - Pass Details

Date: 15 October 2021
Orbit: 604 x 630 km, 82.5° (Epoch: 02 December)

Event Time Altitude Azimuth Distance (km) Brightness Sun altitude
Rises 19:27:23 0° 207° (SSW) 2,874 6.7 -24.3°
Reaches altitude 10° 19:29:43 10° 215° (SW) 1,978 5.9 -24.8°
Maximum altitude 19:33:48 38° 284° (WNW) 958 4.5 -25.5°
Drops below altitude 10° 19:37:58 10° 353° (N) 2,008 5.9 -26.2°
Sets 19:40:21 0° 1° (N) 2,923 6.7 -26.6°
